W5CGC Weather Reports


Display with metric or nautical units.
time (UTC)temp
F
wind
direction
speed
MPH
gust
MPH
rain 1hr
in
rain 24hr
in
rain mn
in
humidity
%
barometer
mb
20260510153045 75 56 4.0 13.0 0.00 0.00 0.00 50 1013.1
20260510151538 74 84 2.0 7.0 0.00 0.00 0.00 51 1013.1
20260510150037 73 22 2.0 13.0 0.00 0.00 0.00 52 1013.3
20260510144546 71 224 3.0 11.0 0.00 0.00 0.00 53 1013.4
20260510143038 70 103 1.0 6.0 0.00 0.00 0.00 56 1013.8
20260510141544 70 85 2.0 5.0 0.00 0.00 0.00 57 1013.9
20260510140039 70 2 1.0 4.0 0.00 0.00 0.00 58 1014.3
20260510134543 69 0 0.0 3.0 0.00 0.00 0.00 58 1014.5
20260510133037 69 0 0.0 3.0 0.00 0.00 0.00 59 1014.7
20260510131532 69 185 0.0 3.0 0.00 0.00 0.00 59 1014.7
20260510130039 69 172 0.0 4.0 0.00 0.00 0.00 59 1014.5
20260510124541 69 53 0.0 2.0 0.00 0.00 0.00 60 1014.1
20260510123038 68 153 0.0 3.0 0.00 0.00 0.00 61 1013.9
20260510121537 68 174 0.0 3.0 0.00 0.00 0.00 61 1013.7
20260510120037 68 0 0.0 1.0 0.00 0.00 0.00 61 1013.6
20260510114532 68 0 0.0 4.0 0.00 0.00 0.00 62 1013.3
20260510113034 68 172 0.0 2.0 0.00 0.00 0.00 63 1013.4
20260510111543 68 0 0.0 4.0 0.00 0.00 0.00 62 1013.5
20260510110033 68 187 0.0 4.0 0.00 0.00 0.00 61 1013.3
20260510104543 68 250 1.0 4.0 0.00 0.00 0.00 61 1013.5
20260510103035 68 209 2.0 5.0 0.00 0.00 0.00 60 1013.1
20260510101536 69 198 3.0 8.0 0.00 0.00 0.00 56 1013.2
20260510100032 70 144 3.0 7.0 0.00 0.00 0.00 56 1013.2
20260510094533 71 173 2.0 5.0 0.00 0.00 0.00 58 1013.1
20260510093033 71 169 3.0 10.0 0.00 0.00 0.00 58 1012.4
20260510091539 72 171 1.0 9.0 0.00 0.00 0.00 59 1012.1
20260510090036 73 0 0.0 4.0 0.00 0.00 0.00 62 1011.7
20260510084547 74 0 0.0 3.0 0.00 0.00 0.00 66 1011.5
20260510083039 74 0 0.0 1.0 0.00 0.00 0.00 65 1011.6
20260510081547 73 0 0.0 2.0 0.00 0.00 0.00 65 1011.4
20260510080037 73 0 0.0 0.0 0.00 0.00 0.00 64 1011.4
20260510074538 74 0 0.0 0.0 0.00 0.00 0.00 62 1010.5
20260510073046 74 0 0.0 0.0 0.00 0.00 0.00 60 1010.3
20260510071535 75 0 0.0 0.0 0.00 0.00 0.00 60 1010.0
20260510070037 75 0 0.0 3.0 0.00 0.00 0.00 59 1009.7
20260510064535 76 224 1.0 6.0 0.00 0.00 0.00 57 1009.5
20260510063038 76 48 2.0 7.0 0.00 0.00 0.00 56 1010.6
20260510061545 75 97 2.0 6.0 0.00 0.00 0.00 56 1011.4
20260510060042 75 169 1.0 5.0 0.00 0.00 0.00 57 1011.5
20260510054532 74 0 0.0 0.0 0.00 0.00 0.00 56 1009.4
20260510053035 73 0 0.0 0.0 0.00 0.00 0.00 56 1008.6
20260510051532 74 0 0.0 0.0 0.00 0.00 0.00 54 1008.5
20260510050039 74 0 0.0 0.0 0.00 0.00 0.00 53 1008.4
20260510044537 75 0 0.0 2.0 0.00 0.00 0.00 51 1007.9
20260510043035 75 89 0.0 3.0 0.00 0.00 0.00 52 1007.9
20260510041538 75 0 0.0 0.0 0.00 0.00 0.00 52 1008.2
20260510040034 75 122 0.0 2.0 0.00 0.00 0.00 51 1008.3
20260510034538 75 0 0.0 0.0 0.00 0.00 0.00 52 1008.5
20260510033039 75 0 0.0 1.0 0.00 0.00 0.00 52 1008.5
20260510031551 76 0 0.0 0.0 0.00 0.00 0.00 50 1008.7
20260510030037 77 0 0.0 0.0 0.00 0.00 0.00 50 1008.6
20260510024537 77 0 0.0 0.0 0.00 0.00 0.00 50 1008.6
20260510023043 78 0 0.0 0.0 0.00 0.00 0.00 48 1008.5
20260510021539 78 0 0.0 1.0 0.00 0.00 0.00 48 1008.3
20260510020035 79 0 0.0 1.0 0.00 0.00 0.00 50 1008.0
20260510014536 79 0 0.0 0.0 0.00 0.00 0.00 50 1007.9
20260510013040 80 0 0.0 0.0 0.00 0.00 0.00 51 1007.8
20260510011538 81 0 0.0 0.0 0.00 0.00 0.00 48 1007.5
20260510010038 81 0 0.0 1.0 0.00 0.00 0.00 47 1007.3
20260510004538 81 139 0.0 1.0 0.00 0.00 0.00 43 1007.3
20260510003039 83 139 0.0 0.0 0.00 0.00 0.00 47 1007.3
20260510001537 85 0 0.0 0.0 0.00 0.00 0.00 41 1007.3
20260510000038 88 0 0.0 0.0 0.00 0.00 0.00 37 1007.2
20260509234538 91 0 0.0 0.0 0.00 0.00 0.00 32 1007.3
20260509233034 89 0 0.0 0.0 0.00 0.00 0.00 35 1007.5
20260509231534 88 0 0.0 1.0 0.00 0.00 0.00 33 1007.5
20260509230032 89 0 0.0 2.0 0.00 0.00 0.00 32 1007.5
20260509224539 92 0 0.0 0.0 0.00 0.00 0.00 30 1007.5
20260509223036 91 94 0.0 2.0 0.00 0.00 0.00 28 1007.6
20260509221535 91 32 0.0 2.0 0.00 0.00 0.00 30 1007.6
20260509220038 89 79 1.0 3.0 0.00 0.00 0.00 34 1007.7
20260509214536 90 276 1.0 5.0 0.00 0.00 0.00 32 1007.7
20260509213034 89 0 1.0 4.0 0.00 0.00 0.00 35 1007.8
20260509211544 90 0 0.0 2.0 0.00 0.00 0.00 34 1008.0
20260509210039 89 169 1.0 3.0 0.00 0.00 0.00 36 1008.2
20260509204537 88 181 0.0 3.0 0.00 0.00 0.00 35 1008.3
20260509203033 87 164 1.0 3.0 0.00 0.00 0.00 38 1008.5
20260509201532 88 85 0.0 3.0 0.00 0.00 0.00 37 1008.7
20260509200043 87 0 1.0 4.0 0.00 0.00 0.00 39 1008.8
20260509194538 88 108 0.0 3.0 0.00 0.00 0.00 40 1009.1
20260509193037 88 0 0.0 2.0 0.00 0.00 0.00 42 1009.2
20260509191535 88 135 0.0 3.0 0.00 0.00 0.00 40 1009.2
20260509190033 89 173 1.0 2.0 0.00 0.00 0.00 35 1009.4
20260509184554 89 0 0.0 2.0 0.00 0.00 0.00 36 1009.5
20260509183039 87 0 0.0 3.0 0.00 0.00 0.00 39 1009.6
20260509181543 86 148 0.0 2.0 0.00 0.00 0.00 40 1009.8
20260509180038 87 154 0.0 2.0 0.00 0.00 0.00 38 1009.9
20260509174536 87 0 0.0 2.0 0.00 0.00 0.00 38 1010.1
20260509173035 86 160 0.0 2.0 0.00 0.00 0.00 40 1010.1
20260509171539 85 169 1.0 4.0 0.00 0.00 0.00 42 1010.3
20260509170032 85 103 0.0 2.0 0.00 0.00 0.00 41 1010.5
20260509164537 83 155 0.0 5.0 0.00 0.00 0.00 42 1010.5
20260509163044 83 115 0.0 4.0 0.00 0.00 0.00 41 1010.5
20260509161534 82 134 1.0 6.0 0.00 0.00 0.00 42 1010.4
20260509160032 81 143 0.0 4.0 0.00 0.00 0.00 46 1010.4
20260509154544 80 152 1.0 3.0 0.00 0.00 0.00 56 1010.3